TimeCST,TemperatureF,Dew PointF,Humidity,Sea Level PressureIn,VisibilityMPH,Wind Direction,Wind SpeedMPH,Gust SpeedMPH,PrecipitationIn,Events,Conditions,WindDirDegrees,DateUTC
12:36 AM,8.6,6.8,92,30.04,4.0,SSE,17.3,-,0.00,,Light Freezing Drizzle,160,2013-01-18 06:36:00
12:53 AM,9.0,6.1,88,30.08,2.5,SE,17.3,-,0.00,,Light Freezing Drizzle,140,2013-01-18 06:53:00
1:30 AM,10.4,6.8,85,30.00,4.0,SE,13.8,-,0.00,Snow,Light Snow,140,2013-01-18 07:30:00
1:53 AM,10.9,7.0,84,30.06,3.0,SE,12.7,-,0.00,Snow,Light Snow,130,2013-01-18 07:53:00
2:33 AM,10.4,6.8,85,29.95,1.2,SE,12.7,-,0.03,Snow,Light Snow,140,2013-01-18 08:33:00
2:43 AM,10.4,6.8,85,29.95,1.0,SE,13.8,-,0.04,Snow,Light Snow,130,2013-01-18 08:43:00
2:53 AM,10.9,7.0,84,30.00,1.0,SE,12.7,-,0.05,Snow,Light Snow,130,2013-01-18 08:53:00
3:06 AM,10.4,6.8,85,29.93,2.0,SE,12.7,-,0.01,Snow,Light Snow,130,2013-01-18 09:06:00
3:51 AM,10.4,6.8,85,29.89,3.0,ESE,11.5,-,0.01,Snow,Light Snow,120,2013-01-18 09:51:00
3:53 AM,10.9,7.0,84,29.95,3.0,ESE,12.7,-,0.01,Snow,Light Snow,120,2013-01-18 09:53:00
4:53 AM,12.0,8.1,84,29.91,8.0,SE,9.2,-,0.00,Snow,Light Snow,130,2013-01-18 10:53:00
5:53 AM,12.9,10.0,88,29.87,10.0,SE,9.2,-,0.00,,Overcast,130,2013-01-18 11:53:00
6:27 AM,14.0,10.4,86,29.79,10.0,ESE,5.8,-,N/A,,Overcast,110,2013-01-18 12:27:00
6:53 AM,14.0,10.9,88,29.86,10.0,East,5.8,-,N/A,,Overcast,90,2013-01-18 12:53:00
7:53 AM,16.0,12.0,84,29.81,10.0,SE,8.1,-,N/A,,Overcast,130,2013-01-18 13:53:00
8:53 AM,16.0,12.9,88,29.82,9.0,East,4.6,-,0.00,Snow,Light Snow,80,2013-01-18 14:53:00
9:11 AM,15.8,12.2,86,29.74,6.0,East,5.8,-,0.00,Snow,Light Snow,90,2013-01-18 15:11:00
9:53 AM,17.1,14.0,88,29.81,10.0,SE,3.5,-,0.01,,Overcast,140,2013-01-18 15:53:00
10:15 AM,17.6,14.0,86,29.73,10.0,SSE,5.8,-,N/A,,Overcast,150,2013-01-18 16:15:00
10:53 AM,19.0,15.1,85,29.80,10.0,Calm,Calm,-,N/A,,Overcast,0,2013-01-18 16:53:00
11:10 AM,19.4,14.0,80,29.74,10.0,Calm,Calm,-,N/A,,Overcast,0,2013-01-18 17:10:00
11:28 AM,19.4,14.0,80,29.75,2.5,NNW,5.8,-,0.00,Snow,Light Snow,330,2013-01-18 17:28:00
11:37 AM,19.4,14.0,80,29.74,3.0,North,8.1,-,0.00,Snow,Light Snow,360,2013-01-18 17:37:00
11:53 AM,19.0,14.0,81,29.79,2.5,North,5.8,-,0.00,Snow,Light Snow,10,2013-01-18 17:53:00
12:20 PM,17.6,14.0,86,29.72,5.0,North,3.5,-,0.01,Snow,Light Snow,350,2013-01-18 18:20:00
12:53 PM,19.0,14.0,81,29.79,10.0,NW,8.1,-,0.01,,Overcast,320,2013-01-18 18:53:00
1:53 PM,19.0,12.9,77,29.79,10.0,North,9.2,-,N/A,,Mostly Cloudy,350,2013-01-18 19:53:00
2:53 PM,18.0,12.0,78,29.79,10.0,NNW,8.1,-,N/A,,Mostly Cloudy,330,2013-01-18 20:53:00
3:53 PM,17.1,12.0,81,29.78,10.0,North,6.9,-,N/A,,Mostly Cloudy,360,2013-01-18 21:53:00
4:53 PM,17.1,12.0,81,29.79,10.0,NNW,5.8,-,N/A,,Overcast,340,2013-01-18 22:53:00
5:53 PM,17.1,12.0,81,29.81,10.0,NNW,8.1,-,N/A,,Overcast,330,2013-01-18 23:53:00
6:53 PM,16.0,12.0,84,29.79,8.0,NNE,4.6,-,N/A,,Overcast,30,2013-01-19 00:53:00
7:31 PM,15.8,10.4,79,29.74,10.0,ENE,3.5,-,N/A,,Overcast,70,2013-01-19 01:31:00
7:53 PM,16.0,12.0,84,29.79,10.0,Calm,Calm,-,N/A,,Overcast,0,2013-01-19 01:53:00
8:53 PM,16.0,12.0,84,29.78,10.0,Calm,Calm,-,N/A,,Overcast,0,2013-01-19 02:53:00
9:53 PM,16.0,12.0,84,29.77,10.0,Calm,Calm,-,N/A,,Overcast,0,2013-01-19 03:53:00
10:53 PM,16.0,12.0,84,29.74,10.0,ESE,4.6,-,N/A,,Overcast,120,2013-01-19 04:53:00
11:53 PM,16.0,12.9,88,29.72,10.0,Calm,Calm,-,N/A,,Overcast,0,2013-01-19 05:53:00